Location: Ammerl�gen
(47.2167°N, 9.6000°E)
Time: 07:35:50
(UTC+00:00)

Iridium 4 Rocket - Pass Details

Date: 03 August 2021
Orbit: 584 x 904 km, 86.9° (Epoch: 18 September)

Event Time Altitude Azimuth Distance (km) Brightness Sun altitude
Rises 22:51:29 0° 15° (NNE) 3,465 7.9 -25.0°
Reaches altitude 10° 22:56:27 10° 52° (NE) 2,570 6.5 -25.2°
Maximum altitude 22:57:42 11° 65° (ENE) 2,529 6.4 -25.2°
Drops below altitude 10° 22:58:59 10° 77° (ENE) 2,582 6.3 -25.2°
Enters shadow 23:01:14 - 97° (E) 2,888 6.3 -25.3°
